�N����,�����b,�ŏ������i�x�j,���ϕ����i�x�j,�ő啗���i�x�j,�ŏ�����(m/s),���ϕ���(m/s),�ő啗��(m/s),�C��(���j,���x�i���j,�C��(hPa),�~�J��(mm),�~�J����(�b�j,�~�J���x(mm/h),�ő�~�J���x(mm/h),�~�Ђ傤��(hit/���u),�~�Ђ傤����(�b�j,�~�Ђ傤���x(hit/���uh),�ő�~�Ђ傤���x(hit/���uh),�q�[�^���x(���j,�q�[�^�[�d���iV),�d���d���iV),�Q�Ɠd���iV)
2014/05/01,00:00:01,014,020,024,0.5,0.6,0.7,18.8,72.1,1007.7,0.00,0,0.0,////,0.0,0,0.0,////,17.4,0.0,12.3,3.523
2014/05/01,00:10:01,016,024,029,1.1,1.3,1.7,18.9,72.4,1007.9,0.00,0,0.0,////,0.0,0,0.0,////,17.4,0.0,12.3,3.523
2014/05/01,00:20:01,356,359,001,0.8,0.9,1.1,19.2,72.5,1008.2,0.00,0,0.0,////,0.0,0,0.0,////,17.7,0.0,12.3,3.523
2014/05/01,00:30:01,348,355,000,1.5,1.6,1.7,19.3,72.6,1008.1,0.00,0,0.0,////,0.0,0,0.0,////,18.2,0.0,12.3,3.524
2014/05/01,00:40:01,353,355,357,1.7,1.9,2.2,19.3,72.7,1008.0,0.00,0,0.0,////,0.0,0,0.0,////,18.1,0.0,12.3,3.523
2014/05/01,00:50:01,344,355,006,1.6,1.8,2.0,19.2,73.1,1008.0,0.00,0,0.0,////,0.0,0,0.0,////,18.1,0.0,12.3,3.523
2014/05/01,01:00:01,348,355,004,1.9,2.4,2.7,19.2,73.2,1007.9,0.00,0,0.0,////,0.0,0,0.0,////,18.1,0.0,12.3,3.521
2014/05/01,01:10:01,357,000,004,1.1,1.2,1.4,19.2,73.3,1007.9,0.00,0,0.0,////,0.0,0,0.0,////,18.1,0.0,12.3,3.523
2014/05/01,01:20:01,358,004,010,1.5,1.8,2.1,19.3,74.1,1007.8,0.00,0,0.0,////,0.0,0,0.0,////,17.9,0.0,12.3,3.523
2014/05/01,01:30:01,357,359,003,2.8,3.0,3.1,19.2,74.1,1007.6,0.00,0,0.0,////,0.0,0,0.0,////,18.1,0.0,12.3,3.523
2014/05/01,01:40:01,309,325,336,1.3,1.6,2.0,19.1,74.4,1007.5,0.00,0,0.0,////,0.0,0,0.0,////,17.7,0.0,12.3,3.523
2014/05/01,01:50:01,028,038,045,1.3,1.4,1.5,19.0,75.4,1007.4,0.00,0,0.0,////,0.0,0,0.0,////,17.5,0.0,12.3,3.523
2014/05/01,02:00:01,358,000,004,1.3,1.4,1.5,18.9,75.3,1007.6,0.00,0,0.0,////,0.0,0,0.0,////,17.5,0.0,12.3,3.523
2014/05/01,02:10:01,008,014,022,1.0,1.1,1.3,19.0,74.8,1007.6,0.00,0,0.0,////,0.0,0,0.0,////,17.5,0.0,12.3,3.524
2014/05/01,02:20:01,346,348,351,1.7,1.9,2.0,19.1,75.6,1007.6,0.00,0,0.0,////,0.0,0,0.0,////,17.7,0.0,12.3,3.523
2014/05/01,02:30:01,333,336,339,1.1,1.3,1.5,19.0,75.2,1007.6,0.00,0,0.0,////,0.0,0,0.0,////,17.7,0.0,12.3,3.521
2014/05/01,02:40:01,014,016,020,1.8,1.9,2.0,19.1,74.5,1007.4,0.00,0,0.0,////,0.0,0,0.0,////,17.7,0.0,12.3,3.524
2014/05/01,02:50:01,267,273,280,0.4,0.5,0.6,18.9,75.2,1007.5,0.00,0,0.0,////,0.0,0,0.0,////,17.4,0.0,12.3,3.521
2014/05/01,03:00:01,027,033,042,0.5,0.6,0.7,18.7,75.6,1007.5,0.00,0,0.0,////,0.0,0,0.0,////,17.4,0.0,12.3,3.523
2014/05/01,03:10:01,028,034,046,1.2,1.4,1.5,18.8,75.1,1007.5,0.00,0,0.0,////,0.0,0,0.0,////,17.2,0.0,12.3,3.523
2014/05/01,03:20:01,345,347,349,1.1,1.4,1.6,18.9,75.1,1007.7,0.00,0,0.0,////,0.0,0,0.0,////,17.5,0.0,12.3,3.523
2014/05/01,03:30:01,028,032,037,2.3,2.5,2.7,19.2,73.7,1007.5,0.00,0,0.0,////,0.0,0,0.0,////,18.1,0.0,12.3,3.524
2014/05/01,03:40:01,002,013,020,2.1,2.2,2.3,19.3,73.6,1007.3,0.00,0,0.0,////,0.0,0,0.0,////,17.9,0.0,12.3,3.523
2014/05/01,03:50:01,003,010,020,2.8,3.1,3.3,19.2,73.2,1007.2,0.00,0,0.0,////,0.0,0,0.0,////,18.1,0.0,12.3,3.523
2014/05/01,04:00:01,007,010,013,1.6,1.8,2.0,19.2,73.2,1007.5,0.00,0,0.0,////,0.0,0,0.0,////,18.1,0.0,12.3,3.525
2014/05/01,04:10:01,003,006,009,1.9,2.0,2.2,19.2,73.3,1007.6,0.00,0,0.0,////,0.0,0,0.0,////,17.9,0.0,12.3,3.521
2014/05/01,04:20:01,024,032,039,2.0,2.2,2.5,19.3,73.1,1007.6,0.00,0,0.0,////,0.0,0,0.0,////,18.2,0.0,12.3,3.523
2014/05/01,04:30:01,003,021,033,0.5,0.8,1.1,19.3,73.1,1007.6,0.00,0,0.0,////,0.0,0,0.0,////,18.4,0.0,12.3,3.521
2014/05/01,04:40:01,348,355,006,1.7,1.8,2.0,19.4,73.1,1007.8,0.00,0,0.0,////,0.0,0,0.0,////,18.4,0.0,12.3,3.523
2014/05/01,04:50:01,017,019,022,2.1,2.3,2.5,19.4,72.3,1007.8,0.00,0,0.0,////,0.0,0,0.0,////,18.2,0.0,12.3,3.523
2014/05/01,05:00:01,347,351,353,2.2,2.3,2.5,19.4,71.9,1007.7,0.00,0,0.0,////,0.0,0,0.0,////,18.2,0.0,12.3,3.523
2014/05/01,05:10:01,355,002,007,1.9,2.1,2.5,19.4,72.0,1007.8,0.00,0,0.0,////,0.0,0,0.0,////,18.2,0.0,12.3,3.523
2014/05/01,05:20:01,004,007,010,2.3,2.4,2.5,19.4,71.3,1007.9,0.00,0,0.0,////,0.0,0,0.0,////,18.2,0.0,12.3,3.523
2014/05/01,05:30:01,004,013,023,1.4,1.6,1.8,19.5,71.4,1007.8,0.00,0,0.0,////,0.0,0,0.0,////,18.4,0.0,12.3,3.524
2014/05/01,05:40:01,015,015,016,1.8,1.9,2.0,19.4,71.4,1007.9,0.00,0,0.0,////,0.0,0,0.0,////,18.4,0.0,12.3,3.523
2014/05/01,05:50:01,003,009,012,1.8,2.2,2.5,19.5,72.4,1008.0,0.00,0,0.0,////,0.0,0,0.0,////,18.4,0.0,12.3,3.523
2014/05/01,06:00:01,001,005,008,2.6,2.9,3.1,19.4,72.6,1007.9,0.00,0,0.0,////,0.0,0,0.0,////,18.2,0.0,12.3,3.521
2014/05/01,06:10:01,017,020,021,1.7,1.9,2.1,19.4,72.5,1007.9,0.00,0,0.0,////,0.0,0,0.0,////,18.2,0.0,12.3,3.523
2014/05/01,06:20:01,025,034,040,2.1,2.4,2.6,19.3,73.8,1007.9,0.00,0,0.0,////,0.0,0,0.0,////,18.2,0.0,12.3,3.523
2014/05/01,06:30:01,001,006,012,1.5,1.6,1.7,19.4,73.5,1008.0,0.00,0,0.0,////,0.0,0,0.0,////,18.7,0.0,12.3,3.523
2014/05/01,06:40:01,020,027,033,2.3,2.5,2.6,19.4,74.2,1008.2,0.00,0,0.0,////,0.0,0,0.0,////,18.6,0.0,12.3,3.523
2014/05/01,06:50:01,098,130,180,0.1,0.2,0.2,19.4,73.6,1008.5,0.00,0,0.0,////,0.0,0,0.0,////,18.6,0.0,12.3,3.523
2014/05/01,07:00:01,332,000,046,0.2,0.4,0.5,19.4,75.0,1008.4,0.00,10,0.0,////,0.0,0,0.0,////,18.6,0.0,12.3,3.524
2014/05/01,07:10:01,039,041,044,1.2,1.5,1.8,19.3,75.6,1008.5,0.00,0,0.0,////,0.0,0,0.0,////,18.4,0.0,12.3,3.523
2014/05/01,07:20:01,005,013,024,0.8,1.1,1.4,19.4,75.2,1008.8,0.00,0,0.0,////,0.0,0,0.0,////,18.6,0.0,12.2,3.523
2014/05/01,07:30:01,059,073,087,0.8,0.9,1.1,19.6,75.0,1008.9,0.00,0,0.0,////,0.0,0,0.0,////,18.9,0.0,12.3,3.521
2014/05/01,07:40:01,014,017,022,1.3,1.6,1.9,19.5,75.8,1009.1,0.01,70,0.1,////,0.0,0,0.0,////,18.7,0.0,12.3,3.523
2014/05/01,07:50:01,059,063,068,1.4,1.6,1.7,19.4,77.2,1009.1,0.09,520,0.2,////,0.0,0,0.0,////,17.9,0.0,12.3,3.525
2014/05/01,08:00:01,358,027,063,0.3,0.4,0.5,19.3,79.4,1009.2,0.01,140,0.0,////,0.0,0,0.0,////,17.9,0.0,12.3,3.523
2014/05/01,08:10:01,104,109,116,0.8,0.9,1.0,19.3,79.6,1009.3,0.00,10,0.0,////,0.0,0,0.0,////,17.9,0.0,12.2,3.523
2014/05/01,08:20:01,064,066,069,2.0,2.2,2.4,19.4,80.2,1009.0,0.00,0,0.0,////,0.0,0,0.0,////,18.4,0.0,12.3,3.523
2014/05/01,08:30:01,022,024,027,2.6,3.1,3.3,19.5,78.7,1008.9,0.00,0,0.0,////,0.0,0,0.0,////,18.9,0.0,12.3,3.521
2014/05/01,08:40:01,038,052,064,1.8,2.2,2.7,19.8,77.9,1009.0,0.00,0,0.0,////,0.0,0,0.0,////,19.6,0.0,12.3,3.524
2014/05/01,08:50:01,074,078,083,0.7,0.9,1.2,20.0,77.4,1009.2,0.00,0,0.0,////,0.0,0,0.0,////,20.0,0.0,12.3,3.523
2014/05/01,09:00:01,018,023,027,1.1,1.4,1.8,20.3,75.3,1009.7,0.00,0,0.0,////,0.0,0,0.0,////,21.0,0.0,12.3,3.523
2014/05/01,09:10:01,050,064,084,1.8,2.0,2.1,20.2,75.7,1009.7,0.00,0,0.0,////,0.0,0,0.0,////,20.5,0.0,12.3,3.523
2014/05/01,09:20:01,015,019,023,3.3,3.4,3.5,20.2,76.0,1009.8,0.00,0,0.0,////,0.0,0,0.0,////,20.1,0.0,12.3,3.520
2014/05/01,09:30:01,012,015,017,1.8,1.9,2.0,19.9,75.2,1010.1,0.00,0,0.0,////,0.0,0,0.0,////,19.6,0.0,12.3,3.521
2014/05/01,09:40:01,049,056,064,1.4,1.6,1.7,19.9,76.5,1009.9,0.00,0,0.0,////,0.0,0,0.0,////,19.4,0.0,12.3,3.523
2014/05/01,09:50:01,004,009,015,2.0,2.3,2.6,19.9,76.3,1010.1,0.00,0,0.0,////,0.0,0,0.0,////,19.6,0.0,12.3,3.523
2014/05/01,10:00:01,019,024,026,1.3,1.5,1.7,20.0,75.9,1010.3,0.00,0,0.0,////,0.0,0,0.0,////,19.8,0.0,12.3,3.523
2014/05/01,10:10:01,321,333,341,0.7,0.9,1.1,20.1,76.2,1010.5,0.00,0,0.0,////,0.0,0,0.0,////,19.8,0.0,12.3,3.523
2014/05/01,10:20:01,347,352,359,2.2,2.4,2.7,20.2,75.9,1010.3,0.00,0,0.0,////,0.0,0,0.0,////,20.1,0.0,12.3,3.523
2014/05/01,10:30:01,005,009,011,2.0,2.2,2.3,20.2,75.1,1010.2,0.00,0,0.0,////,0.0,0,0.0,////,20.1,0.0,12.3,3.521
2014/05/01,10:40:01,001,004,006,1.2,1.5,1.8,20.3,75.5,1010.0,0.00,80,0.0,////,0.0,0,0.0,////,20.1,0.0,12.3,3.523
2014/05/01,10:50:01,009,011,013,2.5,2.8,3.1,20.3,76.4,1010.0,0.01,60,0.0,////,0.0,0,0.0,////,20.0,0.0,12.3,3.523
2014/05/01,11:00:01,020,029,033,1.4,1.6,1.8,20.3,75.9,1010.0,0.00,30,0.0,////,0.0,0,0.0,////,20.1,0.0,12.3,3.523
2014/05/01,11:10:01,001,023,040,0.9,1.3,2.0,20.3,75.7,1009.9,0.00,0,0.0,////,0.0,0,0.0,////,20.3,0.0,12.3,3.521
2014/05/01,11:20:01,016,023,032,1.0,1.5,2.0,20.4,75.6,1009.9,0.00,0,0.0,////,0.0,0,0.0,////,20.3,0.0,12.3,3.523
2014/05/01,11:30:01,019,033,041,2.1,2.6,3.3,20.2,74.8,1010.0,0.00,0,0.0,////,0.0,0,0.0,////,20.8,0.0,12.3,3.523
2014/05/01,11:40:01,027,029,032,2.3,2.6,2.8,20.3,75.6,1009.8,0.00,0,0.0,////,0.0,0,0.0,////,20.1,0.0,12.3,3.521
2014/05/01,11:50:01,003,008,015,1.9,2.1,2.4,20.3,75.3,1009.8,0.00,0,0.0,////,0.0,0,0.0,////,20.3,0.0,12.3,3.521
2014/05/01,12:00:01,001,013,029,1.3,1.6,2.0,20.3,74.7,1010.1,0.00,0,0.0,////,0.0,0,0.0,////,20.1,0.0,12.3,3.523
2014/05/01,12:10:01,353,357,001,2.3,2.6,2.9,20.2,74.8,1010.2,0.00,0,0.0,////,0.0,0,0.0,////,20.3,0.0,12.3,3.523
2014/05/01,12:20:01,345,004,016,0.7,1.3,1.7,20.4,75.1,1010.0,0.00,0,0.0,////,0.0,0,0.0,////,20.5,0.0,12.3,3.523
2014/05/01,12:30:01,343,001,021,0.8,1.1,1.4,20.3,74.4,1009.6,0.00,0,0.0,////,0.0,0,0.0,////,20.8,0.0,12.3,3.523
2014/05/01,12:40:01,009,017,025,2.4,2.6,2.9,20.3,73.4,1009.7,0.00,0,0.0,////,0.0,0,0.0,////,20.6,0.0,12.3,3.523
2014/05/01,12:50:01,001,009,016,3.0,3.1,3.2,20.3,72.4,1009.7,0.00,0,0.0,////,0.0,0,0.0,////,20.3,0.0,12.3,3.523
2014/05/01,13:00:01,333,347,003,2.2,2.3,2.5,20.2,69.7,1009.5,0.00,0,0.0,////,0.0,0,0.0,////,20.1,0.0,12.3,3.521
2014/05/01,13:10:01,012,014,017,3.1,3.4,3.8,20.2,67.3,1009.5,0.00,0,0.0,////,0.0,0,0.0,////,20.1,0.0,12.3,3.523
2014/05/01,13:20:01,011,018,023,3.4,3.6,3.8,20.3,67.3,1009.5,0.00,0,0.0,////,0.0,0,0.0,////,20.1,0.0,12.3,3.523
2014/05/01,13:30:01,354,358,002,2.4,2.8,3.2,20.2,66.4,1009.7,0.00,0,0.0,////,0.0,0,0.0,////,20.0,0.0,12.3,3.521
2014/05/01,13:40:01,000,005,010,3.1,3.2,3.3,20.2,65.5,1009.6,0.00,0,0.0,////,0.0,0,0.0,////,20.1,0.0,12.3,3.519
2014/05/01,13:50:01,006,009,010,3.3,3.6,3.9,20.4,66.2,1009.4,0.00,0,0.0,////,0.0,0,0.0,////,20.5,0.0,12.3,3.523
2014/05/01,14:00:01,030,034,038,1.7,1.7,1.8,20.5,66.2,1009.2,0.00,0,0.0,////,0.0,0,0.0,////,21.2,0.0,12.3,3.521
2014/05/01,14:10:01,017,024,031,2.1,2.3,2.6,20.5,64.9,1009.2,0.00,0,0.0,////,0.0,0,0.0,////,21.0,0.0,12.3,3.524
2014/05/01,14:20:01,011,028,043,2.4,2.7,3.1,20.5,64.6,1009.2,0.00,0,0.0,////,0.0,0,0.0,////,21.2,0.0,12.3,3.520
2014/05/01,14:30:01,006,010,014,2.7,2.9,3.0,20.5,64.5,1009.1,0.00,0,0.0,////,0.0,0,0.0,////,21.0,0.0,12.3,3.521
2014/05/01,14:40:01,001,004,009,2.9,3.3,3.6,20.7,63.0,1009.1,0.00,0,0.0,////,0.0,0,0.0,////,21.3,0.0,12.3,3.520
2014/05/01,14:50:01,014,017,020,2.0,2.4,2.7,20.5,64.1,1008.9,0.00,0,0.0,////,0.0,0,0.0,////,21.0,0.0,12.3,3.523
2014/05/01,15:00:01,010,012,013,2.0,2.3,2.5,20.4,65.5,1008.8,0.00,0,0.0,////,0.0,0,0.0,////,20.8,0.0,12.3,3.524
2014/05/01,15:10:01,008,014,019,3.2,3.8,4.2,20.3,66.1,1008.7,0.00,0,0.0,////,0.0,0,0.0,////,20.6,0.0,12.3,3.521
2014/05/01,15:20:01,019,026,032,3.3,3.5,3.7,20.2,67.4,1008.8,0.00,0,0.0,////,0.0,0,0.0,////,20.3,0.0,12.3,3.523
2014/05/01,15:30:01,027,032,037,2.0,2.3,2.7,20.2,67.4,1008.8,0.00,0,0.0,////,0.0,0,0.0,////,20.3,0.0,12.3,3.521
2014/05/01,15:40:01,017,023,028,1.4,1.6,1.8,20.2,66.6,1008.8,0.00,0,0.0,////,0.0,0,0.0,////,20.3,0.0,12.3,3.520
2014/05/01,15:50:01,356,003,016,1.6,1.7,1.8,20.2,67.5,1008.8,0.00,0,0.0,////,0.0,0,0.0,////,20.3,0.0,12.3,3.523
2014/05/01,16:00:01,355,015,028,2.0,2.3,2.6,20.1,66.7,1008.7,0.00,0,0.0,////,0.0,0,0.0,////,20.1,0.0,12.3,3.523
2014/05/01,16:10:01,005,024,039,1.8,1.9,2.0,20.0,69.7,1008.7,0.00,0,0.0,////,0.0,0,0.0,////,19.8,0.0,12.3,3.523
2014/05/01,16:20:01,017,031,044,1.6,1.8,2.0,20.0,69.8,1008.7,0.00,0,0.0,////,0.0,0,0.0,////,19.6,0.0,12.3,3.523
2014/05/01,16:30:01,038,051,064,2.9,3.2,3.4,19.9,70.4,1008.8,0.00,20,0.0,////,0.0,0,0.0,////,19.4,0.0,12.3,3.524
2014/05/01,16:40:01,350,001,012,1.4,2.0,2.5,19.7,71.6,1009.0,0.00,40,0.0,////,0.0,0,0.0,////,18.7,0.0,12.3,3.521
2014/05/01,16:50:01,024,029,037,1.7,1.8,2.0,19.4,69.4,1009.0,0.00,30,0.0,////,0.0,0,0.0,////,18.6,0.0,12.3,3.523
2014/05/01,17:00:01,017,032,040,2.3,2.6,2.9,19.4,70.2,1009.1,0.00,20,0.0,////,0.0,0,0.0,////,18.4,0.0,12.3,3.523
2014/05/01,17:10:01,007,016,021,1.6,1.7,1.8,19.3,69.9,1009.3,0.00,20,0.0,////,0.0,0,0.0,////,18.2,0.0,12.3,3.523
2014/05/01,17:20:01,016,021,023,1.7,1.9,2.1,19.2,70.3,1009.3,0.01,100,0.1,////,0.0,0,0.0,////,17.9,0.0,12.3,3.521
2014/05/01,17:30:01,013,023,029,2.2,2.5,2.8,19.3,72.9,1009.2,0.01,180,0.0,////,0.0,0,0.0,////,17.5,0.0,12.3,3.523
2014/05/01,17:40:01,038,041,043,2.3,2.4,2.5,19.0,70.7,1009.1,0.00,10,0.0,////,0.0,0,0.0,////,17.5,0.0,12.3,3.523
2014/05/01,17:50:01,010,037,054,1.2,1.6,1.8,19.0,71.1,1009.2,0.00,10,0.0,////,0.0,0,0.0,////,17.9,0.0,12.3,3.523
2014/05/01,18:00:01,042,046,050,1.9,2.0,2.1,18.9,70.5,1009.2,0.00,0,0.0,////,0.0,0,0.0,////,17.9,0.0,12.3,3.523
2014/05/01,18:10:01,049,073,089,1.0,1.4,1.9,18.9,70.8,1009.1,0.00,0,0.0,////,0.0,0,0.0,////,17.9,0.0,12.3,3.524
2014/05/01,18:20:01,058,062,070,1.3,1.7,1.9,18.8,69.0,1009.0,0.00,0,0.0,////,0.0,0,0.0,////,17.9,0.0,12.3,3.521
2014/05/01,18:30:01,054,089,110,0.6,0.9,1.1,18.8,68.1,1009.0,0.00,0,0.0,////,0.0,0,0.0,////,18.1,0.0,12.3,3.524
2014/05/01,18:40:01,053,062,067,2.2,2.7,3.1,19.0,67.8,1009.2,0.00,0,0.0,////,0.0,0,0.0,////,18.1,0.0,12.2,3.523
2014/05/01,18:50:01,019,038,050,1.2,1.4,1.6,19.1,68.7,1009.2,0.00,0,0.0,////,0.0,0,0.0,////,18.1,0.0,12.3,3.523
2014/05/01,19:00:01,024,032,036,1.9,2.1,2.3,18.9,66.3,1009.5,0.00,0,0.0,////,0.0,0,0.0,////,18.1,0.0,12.3,3.524
2014/05/01,19:10:01,025,034,046,2.2,2.8,3.4,19.2,66.3,1009.4,0.00,0,0.0,////,0.0,0,0.0,////,18.2,0.0,12.3,3.524
2014/05/01,19:20:01,036,073,099,0.8,1.0,1.1,19.1,67.5,1009.4,0.00,0,0.0,////,0.0,0,0.0,////,17.9,0.0,12.3,3.523
2014/05/01,19:30:01,053,059,066,1.5,1.6,1.8,18.8,68.4,1009.4,0.00,0,0.0,////,0.0,0,0.0,////,18.1,0.0,12.3,3.523
2014/05/01,19:40:01,057,066,076,2.0,2.1,2.3,18.7,68.3,1009.4,0.00,0,0.0,////,0.0,0,0.0,////,17.7,0.0,12.3,3.523
2014/05/01,19:50:01,049,064,075,1.5,1.8,2.1,18.8,66.6,1009.3,0.00,0,0.0,////,0.0,0,0.0,////,17.7,0.0,12.3,3.523
2014/05/01,20:00:01,084,089,092,1.4,1.6,1.7,18.8,64.2,1009.4,0.00,0,0.0,////,0.0,0,0.0,////,17.7,0.0,12.3,3.523
2014/05/01,20:10:01,089,102,126,1.0,1.5,1.9,18.8,62.2,1009.3,0.00,0,0.0,////,0.0,0,0.0,////,17.7,0.0,12.3,3.523
2014/05/01,20:20:01,119,125,136,1.3,1.9,2.3,18.9,64.5,1009.4,0.00,0,0.0,////,0.0,0,0.0,////,17.7,0.0,12.3,3.523
2014/05/01,20:30:01,100,106,113,1.9,2.2,2.4,18.9,69.5,1009.6,0.00,0,0.0,////,0.0,0,0.0,////,17.7,0.0,12.3,3.524
2014/05/01,20:40:01,110,116,123,3.0,3.2,3.3,18.7,71.0,1009.8,0.00,0,0.0,////,0.0,0,0.0,////,17.5,0.0,12.3,3.523
2014/05/01,20:50:01,107,117,123,2.6,3.0,3.4,18.7,73.4,1009.6,0.00,0,0.0,////,0.0,0,0.0,////,17.5,0.0,12.4,3.524
2014/05/01,21:00:01,106,109,110,2.5,2.7,3.0,18.8,73.9,1009.6,0.00,0,0.0,////,0.0,0,0.0,////,18.1,0.0,12.3,3.523
2014/05/01,21:10:01,114,118,127,3.4,3.6,3.9,18.8,75.0,1009.8,0.00,0,0.0,////,0.0,0,0.0,////,17.5,0.0,12.3,3.523
2014/05/01,21:20:01,114,119,121,3.1,3.3,3.5,18.8,75.6,1010.0,0.00,0,0.0,////,0.0,0,0.0,////,17.7,0.0,12.3,3.523
2014/05/01,21:30:01,104,108,113,2.7,3.0,3.5,18.7,75.8,1009.9,0.00,0,0.0,////,0.0,0,0.0,////,17.5,0.0,12.3,3.523
2014/05/01,21:40:01,094,098,104,1.8,2.1,2.4,18.6,75.5,1010.1,0.00,0,0.0,////,0.0,0,0.0,////,17.5,0.0,12.3,3.523
2014/05/01,21:50:01,119,121,126,1.9,2.1,2.5,18.5,75.1,1010.1,0.00,0,0.0,////,0.0,0,0.0,////,17.4,0.0,12.3,3.523
2014/05/01,22:00:01,111,117,122,2.0,2.3,2.5,18.5,74.0,1009.9,0.00,0,0.0,////,0.0,0,0.0,////,17.5,0.0,12.3,3.525
2014/05/01,22:10:01,116,118,120,2.5,2.7,2.9,18.6,72.0,1010.1,0.00,0,0.0,////,0.0,0,0.0,////,17.5,0.0,12.3,3.524
2014/05/01,22:20:01,111,116,119,1.9,2.0,2.2,18.6,69.9,1010.3,0.00,0,0.0,////,0.0,0,0.0,////,17.9,0.0,12.3,3.524
2014/05/01,22:30:01,109,117,122,2.9,3.3,3.6,18.7,67.4,1009.9,0.00,0,0.0,////,0.0,0,0.0,////,17.7,0.0,12.3,3.523
2014/05/01,22:40:01,120,122,124,3.1,3.2,3.3,18.7,64.5,1010.2,0.00,0,0.0,////,0.0,0,0.0,////,17.7,0.0,12.3,3.523
2014/05/01,22:50:01,113,113,114,1.8,2.0,2.1,18.7,65.3,1010.5,0.00,0,0.0,////,0.0,0,0.0,////,17.5,0.0,12.3,3.523
2014/05/01,23:00:01,114,115,115,2.1,2.2,2.3,18.5,66.9,1010.4,0.00,0,0.0,////,0.0,0,0.0,////,17.2,0.0,12.2,3.523
2014/05/01,23:10:01,109,111,114,1.5,1.6,1.7,18.4,67.9,1010.4,0.00,0,0.0,////,0.0,0,0.0,////,17.2,0.0,12.3,3.523
2014/05/01,23:20:01,124,126,129,2.1,2.2,2.3,18.4,69.2,1010.3,0.00,0,0.0,////,0.0,0,0.0,////,17.2,0.0,12.3,3.524
2014/05/01,23:30:01,127,128,130,2.0,2.1,2.2,18.3,70.0,1010.3,0.00,0,0.0,////,0.0,0,0.0,////,17.0,0.0,12.3,3.524
2014/05/01,23:40:01,127,136,144,1.4,1.6,1.8,18.5,70.1,1010.2,0.00,0,0.0,////,0.0,0,0.0,////,17.2,0.0,12.3,3.524
2014/05/01,23:50:01,122,133,139,1.5,1.6,1.9,18.6,69.5,1010.1,0.00,0,0.0,////,0.0,0,0.0,////,17.4,0.0,12.3,3.523
2014/05/02,00:00:01,131,136,140,1.8,2.0,2.2,18.6,69.3,1010.1,0.00,0,0.0,////,0.0,0,0.0,////,17.4,0.0,12.3,3.521
2014/05/02,00:10:01,101,106,109,0.6,0.6,0.7,18.7,68.9,1010.2,0.00,0,0.0,////,0.0,0,0.0,////,17.7,0.0,12.3,3.523
2014/05/02,00:20:01,139,143,147,0.9,1.0,1.0,18.7,68.9,1010.2,0.00,0,0.0,////,0.0,0,0.0,////,17.4,0.0,12.3,3.523
2014/05/02,00:30:01,136,144,154,0.8,0.9,1.0,18.8,68.8,1010.2,0.00,0,0.0,////,0.0,0,0.0,////,17.5,0.0,12.3,3.524
2014/05/02,00:40:01,126,130,133,1.5,1.6,1.7,18.8,68.7,1010.1,0.00,0,0.0,////,0.0,0,0.0,////,17.7,0.0,12.3,3.524
2014/05/02,00:50:01,133,139,145,1.3,1.4,1.6,18.9,68.6,1009.9,0.00,0,0.0,////,0.0,0,0.0,////,17.7,0.0,12.3,3.523
2014/05/02,01:00:01,151,158,163,0.7,0.9,1.1,18.7,68.9,1010.1,0.00,0,0.0,////,0.0,0,0.0,////,17.5,0.0,12.3,3.523
2014/05/02,01:10:01,128,131,134,1.0,1.1,1.2,18.9,68.4,1010.0,0.00,0,0.0,////,0.0,0,0.0,////,17.7,0.0,12.3,3.523
2014/05/02,01:20:01,134,137,142,1.3,1.4,1.5,19.1,68.9,1009.9,0.00,0,0.0,////,0.0,0,0.0,////,17.7,0.0,12.3,3.524
2014/05/02,01:30:01,140,155,172,0.5,0.6,0.7,18.9,70.7,1009.8,0.00,0,0.0,////,0.0,0,0.0,////,18.4,0.0,12.3,3.524
2014/05/02,01:40:01,124,129,132,1.4,1.4,1.5,19.0,70.1,1009.9,0.00,0,0.0,////,0.0,0,0.0,////,17.7,0.0,12.3,3.524
2014/05/02,01:50:01,131,135,140,1.0,1.1,1.2,19.0,70.2,1009.9,0.00,0,0.0,////,0.0,0,0.0,////,17.9,0.0,12.2,3.523
2014/05/02,02:00:01,136,137,138,1.0,1.1,1.3,18.9,70.4,1009.8,0.00,0,0.0,////,0.0,0,0.0,////,17.9,0.0,12.3,3.523
2014/05/02,02:10:01,159,161,163,1.0,1.1,1.1,19.0,69.9,1009.9,0.00,0,0.0,////,0.0,0,0.0,////,17.7,0.0,12.3,3.523
2014/05/02,02:20:01,139,140,141,0.6,0.7,0.8,19.0,69.4,1009.8,0.00,0,0.0,////,0.0,0,0.0,////,18.1,0.0,12.3,3.523
2014/05/02,02:30:01,169,170,171,0.9,1.0,1.1,19.1,68.8,1009.9,0.00,0,0.0,////,0.0,0,0.0,////,17.5,0.0,12.3,3.523
2014/05/02,02:40:01,137,138,140,0.9,1.0,1.0,19.1,68.7,1009.7,0.00,0,0.0,////,0.0,0,0.0,////,17.7,0.0,12.3,3.524
2014/05/02,02:50:01,119,126,129,0.5,0.6,0.7,19.1,68.6,1009.7,0.00,0,0.0,////,0.0,0,0.0,////,17.5,0.0,12.3,3.523
2014/05/02,03:00:01,110,112,114,0.3,0.4,0.5,19.2,68.2,1009.7,0.00,0,0.0,////,0.0,0,0.0,////,17.4,0.0,12.3,3.521
2014/05/02,03:10:01,114,118,120,0.9,1.0,1.1,19.1,68.3,1009.6,0.00,0,0.0,////,0.0,0,0.0,////,17.5,0.0,12.3,3.523
2014/05/02,03:20:01,127,138,150,0.6,0.7,0.8,18.9,69.0,1009.6,0.00,0,0.0,////,0.0,0,0.0,////,17.2,0.0,12.3,3.524
2014/05/02,03:30:01,107,109,112,0.7,0.9,1.0,18.9,69.1,1009.6,0.00,0,0.0,////,0.0,0,0.0,////,17.4,0.0,12.3,3.523
2014/05/02,03:40:01,120,124,130,0.8,1.0,1.1,18.8,69.6,1009.5,0.00,0,0.0,////,0.0,0,0.0,////,17.2,0.0,12.3,3.524
2014/05/02,03:50:01,127,130,132,1.0,1.1,1.2,18.6,71.0,1009.4,0.00,0,0.0,////,0.0,0,0.0,////,17.0,0.0,12.3,3.525
2014/05/02,04:00:01,126,129,133,1.2,1.3,1.4,18.4,71.8,1009.4,0.00,0,0.0,////,0.0,0,0.0,////,17.0,0.0,12.3,3.521
2014/05/02,04:10:01,121,126,129,1.4,1.5,1.5,18.5,72.4,1009.4,0.00,0,0.0,////,0.0,0,0.0,////,16.9,0.0,12.3,3.524
2014/05/02,04:20:01,126,131,138,0.9,1.0,1.2,18.4,73.3,1009.5,0.00,0,0.0,////,0.0,0,0.0,////,16.7,0.0,12.3,3.524
2014/05/02,04:30:01,112,118,128,1.5,1.6,1.7,18.5,72.9,1009.6,0.00,0,0.0,////,0.0,0,0.0,////,16.7,0.0,12.3,3.523
2014/05/02,04:40:01,091,108,118,0.6,0.8,0.9,18.5,72.7,1009.6,0.00,0,0.0,////,0.0,0,0.0,////,16.7,0.0,12.3,3.524
2014/05/02,04:50:01,078,079,081,0.8,1.0,1.1,18.5,72.7,1009.5,0.00,0,0.0,////,0.0,0,0.0,////,16.7,0.0,12.3,3.524
2014/05/02,05:00:01,100,104,108,1.2,1.3,1.3,18.5,72.2,1009.5,0.00,0,0.0,////,0.0,0,0.0,////,16.9,0.0,12.3,3.521
2014/05/02,05:10:01,102,110,114,1.0,1.2,1.3,18.4,71.9,1009.5,0.00,0,0.0,////,0.0,0,0.0,////,16.7,0.0,12.3,3.523
2014/05/02,05:20:01,083,089,098,0.8,0.9,1.1,18.3,72.4,1009.5,0.00,0,0.0,////,0.0,0,0.0,////,16.7,0.0,12.3,3.524
2014/05/02,05:30:01,065,067,071,1.2,1.3,1.4,18.2,72.5,1009.6,0.00,0,0.0,////,0.0,0,0.0,////,16.5,0.0,12.3,3.524
2014/05/02,05:40:01,037,042,047,1.0,1.2,1.3,18.1,73.9,1009.6,0.00,0,0.0,////,0.0,0,0.0,////,16.5,0.0,12.3,3.523
2014/05/02,05:50:01,095,102,111,0.6,0.8,0.9,18.0,74.6,1009.7,0.00,0,0.0,////,0.0,0,0.0,////,16.3,0.0,12.3,3.523
2014/05/02,06:00:01,076,081,090,1.5,1.6,1.7,18.0,74.3,1009.7,0.00,0,0.0,////,0.0,0,0.0,////,16.5,0.0,12.3,3.523
2014/05/02,06:10:01,084,088,093,1.4,1.5,1.7,17.9,74.4,1009.9,0.00,0,0.0,////,0.0,0,0.0,////,16.5,0.0,12.3,3.523
2014/05/02,06:20:01,089,103,111,0.7,0.8,0.9,18.0,72.4,1010.1,0.00,0,0.0,////,0.0,0,0.0,////,16.9,0.0,12.3,3.523
2014/05/02,06:30:01,116,118,121,1.6,1.7,1.9,18.2,71.6,1010.1,0.00,0,0.0,////,0.0,0,0.0,////,17.4,0.0,12.3,3.524
2014/05/02,06:40:01,091,111,122,0.8,1.0,1.2,18.7,69.9,1010.2,0.00,0,0.0,////,0.0,0,0.0,////,18.1,0.0,12.4,3.524
2014/05/02,06:50:01,093,099,106,0.7,1.1,1.5,19.1,69.5,1010.4,0.00,0,0.0,////,0.0,0,0.0,////,18.7,0.0,12.3,3.524
2014/05/02,07:00:01,024,059,096,0.7,0.9,1.0,19.2,69.6,1010.6,0.00,0,0.0,////,0.0,0,0.0,////,19.4,0.0,12.3,3.524
2014/05/02,07:10:01,033,034,036,1.6,1.8,1.9,19.6,68.5,1010.7,0.00,0,0.0,////,0.0,0,0.0,////,20.1,0.0,12.3,3.523
2014/05/02,07:20:01,057,060,062,1.8,2.0,2.3,19.8,68.5,1010.9,0.00,0,0.0,////,0.0,0,0.0,////,20.3,0.0,12.3,3.523
2014/05/02,07:30:01,111,114,117,1.2,1.3,1.4,20.0,68.2,1011.0,0.00,0,0.0,////,0.0,0,0.0,////,20.6,0.0,12.3,3.523
2014/05/02,07:40:01,042,045,049,2.1,2.5,2.8,19.8,68.5,1011.1,0.00,0,0.0,////,0.0,0,0.0,////,20.3,0.0,12.3,3.523
2014/05/02,07:50:01,066,082,094,0.6,0.9,1.1,20.3,69.3,1011.3,0.00,0,0.0,////,0.0,0,0.0,////,21.5,0.0,12.3,3.524
2014/05/02,08:00:01,037,055,070,1.4,1.7,2.0,20.4,65.8,1011.3,0.00,0,0.0,////,0.0,0,0.0,////,22.0,0.0,12.3,3.521
2014/05/02,08:10:01,055,061,072,3.7,4.1,4.3,20.7,66.8,1011.4,0.00,0,0.0,////,0.0,0,0.0,////,22.0,0.0,12.3,3.523
2014/05/02,08:20:01,028,029,030,2.0,2.3,2.7,20.9,66.2,1011.5,0.00,0,0.0,////,0.0,0,0.0,////,22.5,0.0,12.3,3.521
2014/05/02,08:30:01,026,048,065,2.9,3.2,3.6,21.0,66.2,1011.5,0.00,0,0.0,////,0.0,0,0.0,////,22.7,0.0,12.3,3.521
2014/05/02,08:40:01,044,046,047,3.4,3.9,4.3,20.9,67.3,1011.7,0.00,0,0.0,////,0.0,0,0.0,////,22.9,0.0,12.3,3.523
2014/05/02,08:50:01,028,048,061,1.5,1.8,2.2,21.2,65.7,1011.8,0.00,0,0.0,////,0.0,0,0.0,////,23.4,0.0,12.3,3.521
2014/05/02,09:00:01,026,033,038,2.6,3.0,3.5,21.3,64.3,1011.8,0.00,0,0.0,////,0.0,0,0.0,////,23.7,0.0,12.3,3.521
2014/05/02,09:10:01,037,049,064,2.6,3.0,3.3,21.1,64.8,1011.9,0.00,0,0.0,////,0.0,0,0.0,////,23.7,0.0,12.3,3.523
2014/05/02,09:20:01,066,075,090,1.0,1.2,1.5,21.5,65.1,1011.9,0.00,0,0.0,////,0.0,0,0.0,////,23.7,0.0,12.3,3.521
2014/05/02,09:30:01,029,034,037,2.1,2.3,2.5,21.3,63.5,1012.0,0.00,0,0.0,////,0.0,0,0.0,////,24.3,0.0,12.3,3.521
2014/05/02,09:40:01,047,060,077,2.9,3.0,3.1,21.9,64.0,1012.1,0.00,0,0.0,////,0.0,0,0.0,////,25.1,0.0,12.3,3.521
2014/05/02,09:50:01,037,046,053,2.6,3.5,4.0,21.3,63.1,1012.2,0.00,0,0.0,////,0.0,0,0.0,////,24.6,0.0,12.3,3.523
2014/05/02,10:00:01,022,031,042,1.9,2.5,2.8,21.8,65.5,1012.2,0.00,0,0.0,////,0.0,0,0.0,////,24.6,0.0,12.3,3.523
2014/05/02,10:10:01,032,038,049,1.9,2.4,2.7,21.7,66.1,1012.2,0.00,0,0.0,////,0.0,0,0.0,////,24.8,0.0,12.3,3.521
2014/05/02,10:20:01,016,017,018,3.7,3.8,3.9,21.5,64.4,1012.2,0.00,0,0.0,////,0.0,0,0.0,////,24.3,0.0,12.3,3.523
2014/05/02,10:30:01,063,067,070,1.4,1.7,2.0,21.8,66.0,1012.2,0.00,0,0.0,////,0.0,0,0.0,////,24.8,0.0,12.2,3.523
2014/05/02,10:40:01,034,037,039,4.1,4.2,4.3,22.1,65.4,1012.1,0.00,0,0.0,////,0.0,0,0.0,////,25.1,0.0,12.3,3.521